Theta_e
288 287 287 286 286 286 285 285 285 284 284 284 283 284 284 284 284 283 283 283 282 282 282 282 282 282 283 283 283 283 282 282 282 282 282 282 282 281 281 281 281 281
286 286 286 286 285 285 285 285 284 284 283 283 283 283 283 283 283 283 282 282 282 282 282 282 282 282 282 282 282 281 281 281 281 282 281 281 281 281 281 281 281 281
285 285 284 284 283 283 283 284 284 283 283 283 283 282 282 282 282 282 282 281 281 281 281 281 281 281 281 281 281 281 280 280 280 281 281 280 281 281 281 281 281 280
284 284 283 283 283 282 282 282 282 282 282 281 281 282 281 282 281 281 281 281 280 280 280 280 280 280 280 280 280 280 280 279 280 280 279 280 280 280 280 280 280 280
283 283 282 282 282 282 281 280 280 280 280 280 281 281 281 280 280 280 280 280 280 279 279 279 279 279 279 279 279 278 279 279 279 279 278 278 279 279 279 279 279 279
283 282 282 281 281 280 280 280 280 280 280 280 280 280 280 279 279 279 279 278 278 278 278 278 278 278 278 278 278 278 278 278 278 278 277 277 278 279 279 279 278 278
281 281 280 280 280 280 279 279 280 280 280 280 280 279 279 278 278 278 278 278 277 277 277 277 277 277 277 277 277 276 277 277 276 276 276 276 277 277 277 277 277 277
281 280 280 280 279 279 279 279 279 279 279 279 278 278 278 278 277 277 277 277 277 276 276 276 276 276 276 276 276 275 275 275 275 275 274 274 275 274 275 276 276 275
280 279 279 279 279 279 278 278 279 279 279 278 278 278 278 277 277 277 277 276 276 276 276 276 276 275 275 275 274 274 274 274 274 273 272 272 272 272 273 273 273 273
279 279 279 278 278 278 278 278 278 278 278 277 277 277 277 277 277 276 276 276 275 275 275 275 274 274 274 274 273 273 272 272 272 272 272 271 271 271 271 271 271 271
279 279 278 278 278 278 278 278 278 278 278 277 277 276 276 276 276 276 275 275 274 274 274 273 273 273 272 272 272 272 272 271 271 271 271 271 270 270 271 270 270 270
279 278 278 278 278 278 278 278 278 277 277 277 277 276 276 276 275 274 274 273 273 273 273 272 272 272 271 271 271 271 271 271 271 270 270 270 270 270 270 270 269 269
278 278 278 278 278 278 278 277 277 277 276 276 276 275 274 274 273 273 273 272 272 272 271 271 271 271 271 271 271 271 270 270 270 270 270 270 270 270 270 270 270 270
278 279 278 278 278 278 277 277 276 276 275 275 274 273 272 272 272 271 271 271 271 271 271 271 271 270 270 270 270 270 270 270 270 270 270 270 270 270 270 270 270 270
279 279 278 278 277 277 276 275 275 274 274 273 272 271 271 271 271 270 270 270 270 270 270 270 270 270 270 270 270 270 270 270 270 270 271 271 271 271 271 271 271 271
278 277 277 276 276 275 274 274 273 272 271 270 270 270 269 269 269 269 269 269 269 270 270 270 270 270 271 272 273 271 271 271 271 271 271 271 271 270 271 271 271 272
277 276 275 274 274 274 273 272 271 270 269 269 268 268 268 268 268 268 268 269 269 269 269 270 270 270 272 273 274 275 273 272 272 272 272 272 272 271 271 271 272 272
275 275 274 273 272 271 270 269 269 268 267 267 267 267 267 267 267 268 269 269 269 269 269 269 269 271 273 274 274 275 275 273 273 272 272 272 272 272 272 272 272 272
274 273 272 271 270 269 268 267 267 266 266 266 266 267 267 267 267 268 268 269 269 268 268 269 269 271 272 273 274 275 276 275 273 273 272 272 272 272 271 271 271 271
273 271 270 269 268 267 266 266 265 265 266 266 266 267 266 267 267 268 268 268 268 268 268 268 268 270 272 273 274 275 276 275 273 273 272 272 272 272 271 271 271 271
271 270 269 268 267 266 265 265 265 265 266 266 266 266 266 267 267 267 267 267 267 267 267 267 268 271 272 274 274 275 276 276 273 272 272 271 272 272 272 272 272 272
270 269 268 267 266 265 265 265 265 265 265 266 266 267 267 267 267 267 266 266 266 266 266 266 267 271 272 273 274 275 276 273 272 271 271 271 272 272 273 273 273 273
270 269 267 266 266 265 265 265 265 265 265 266 265 266 266 266 266 266 266 266 266 266 265 265 266 269 271 273 274 275 274 272 272 271 271 271 272 272 273 273 273 273
270 268 267 266 265 265 264 265 265 266 265 266 265 265 266 266 266 266 266 266 266 265 266 265 265 268 271 273 274 275 274 272 271 271 271 271 271 272 273 273 274 276
268 267 267 266 265 265 265 265 264 265 265 266 265 266 265 266 266 265 265 265 266 265 267 267 266 268 271 272 274 274 274 272 272 271 271 271 271 271 272 273 273 275
267 266 265 265 264 264 264 264 265 264 264 265 265 265 265 266 266 265 264 264 265 265 266 267 267 268 269 272 274 274 275 273 272 271 270 271 271 272 272 273 274 274
Wind_Speed
10 9 9 8 7 7 7 7 6 6 5 5 4 4 4 4 3 3 4 5 6 7 7 8 8 8 7 8 8 8 8 9 9 8 9 9 10 10 11 12 12 12
12 10 8 8 7 7 7 7 6 6 6 6 5 4 4 3 3 4 5 6 7 8 8 8 8 9 9 8 8 8 8 8 10 7 9 11 10 11 12 13 13 13
12 12 11 11 9 10 8 7 6 6 5 6 5 5 4 3 4 4 5 6 7 7 8 8 8 9 8 8 8 8 9 9 10 9 10 11 10 11 11 12 12 15
13 12 11 11 9 10 8 8 7 6 6 6 6 5 4 4 4 5 6 7 7 8 8 8 8 8 8 8 8 8 9 10 9 10 10 10 10 11 12 12 14 15
14 12 11 10 9 9 8 8 8 7 7 6 5 6 5 5 5 6 7 7 7 7 7 8 8 8 8 8 8 8 9 9 9 10 10 12 11 12 12 13 14 16
12 12 11 11 10 10 8 8 8 8 7 7 6 5 5 6 6 6 6 7 6 7 7 7 8 8 7 8 8 8 9 9 9 10 12 12 13 12 11 13 15 17
14 12 12 11 11 10 9 9 8 8 7 6 5 6 6 6 7 7 7 7 7 7 8 8 8 8 7 7 8 9 9 10 11 12 13 12 13 14 14 14 15 17
14 12 12 11 11 10 9 9 8 8 7 6 7 6 6 7 7 6 6 7 8 8 8 8 8 8 8 7 8 9 10 8 9 11 12 13 12 14 14 13 14 17
13 12 12 12 12 10 10 9 8 8 8 7 7 6 6 6 6 7 7 7 8 8 8 9 9 8 7 7 8 9 10 10 9 10 11 12 13 13 14 13 15 15
13 12 13 12 12 10 11 10 9 8 8 8 7 6 7 6 7 7 7 7 8 9 9 9 8 7 7 8 9 9 9 10 10 11 11 12 12 13 13 13 15 15
14 13 13 13 12 10 11 10 10 9 8 8 7 7 7 6 6 6 7 7 8 8 8 8 7 7 8 8 8 9 10 10 11 11 11 12 12 12 13 14 15 15
14 13 13 13 12 11 11 10 9 9 8 8 7 7 7 6 6 5 5 7 8 8 8 7 7 7 8 9 9 9 9 10 10 11 11 12 12 12 12 13 16 17
14 13 12 12 11 10 10 9 9 9 8 8 7 6 6 6 6 6 6 7 8 8 7 7 7 8 8 9 9 9 10 10 11 11 11 11 12 14 15 16 16 17
12 12 12 11 10 10 9 9 9 8 7 7 6 6 6 6 6 6 6 7 7 7 7 6 7 8 8 8 9 9 9 9 9 11 13 14 15 15 16 16 17 17
12 11 11 10 10 10 9 9 8 7 7 6 6 5 4 5 5 5 7 8 8 7 7 7 7 7 6 7 7 8 8 10 12 12 12 14 14 14 16 17 15 16
12 11 11 10 10 10 9 9 8 7 6 5 5 5 4 4 5 6 7 8 7 7 6 6 6 6 8 13 12 10 11 10 11 12 13 13 15 16 15 15 17 17
11 11 11 11 10 9 8 8 7 6 6 5 5 5 5 5 5 7 8 7 7 6 6 6 6 6 12 13 14 17 13 12 11 12 12 13 14 14 15 17 17 17
11 11 10 10 9 9 8 7 7 6 6 5 5 5 5 5 7 8 7 7 6 5 6 6 7 10 14 14 15 16 15 12 11 12 12 13 13 14 15 16 17 18
10 10 9 9 9 9 8 7 7 6 6 6 6 5 5 6 7 7 7 6 5 5 6 7 8 11 13 15 15 16 17 16 11 12 13 13 14 16 17 16 15 16
9 9 10 9 9 9 8 8 7 6 6 5 5 5 6 7 7 7 6 6 5 4 5 7 8 10 14 15 15 17 18 16 12 13 13 15 16 16 17 17 18 17
9 9 10 10 9 9 8 8 7 7 7 6 5 6 6 6 6 6 6 5 4 4 5 7 8 13 13 15 16 17 18 17 12 13 13 13 16 17 17 16 15 17
9 10 10 10 10 9 8 8 7 7 7 6 5 5 5 5 4 5 5 5 5 5 5 7 8 13 14 15 16 17 19 13 11 12 13 14 14 14 17 17 17 19
9 10 10 10 9 9 8 8 8 7 6 5 5 5 5 5 5 5 4 4 4 4 6 7 8 11 13 15 16 18 15 11 11 11 13 13 14 18 18 18 19 19
7 8 9 9 8 8 8 6 6 5 5 5 6 6 6 5 4 4 4 4 4 5 5 7 8 11 14 15 16 17 16 12 12 13 11 13 17 14 15 18 18 28
8 7 7 8 7 7 6 6 6 5 5 5 4 4 4 4 5 4 4 3 3 4 9 9 8 9 13 14 16 17 14 10 10 11 15 15 13 17 17 13 14 15
9 9 8 8 8 7 6 5 4 4 4 5 4 4 4 3 4 4 3 3 3 5 6 6 7 6 8 14 15 17 18 13 10 13 14 15 17 13 12 14 16 14
Wind_Direction
169 171 170 170 175 176 178 181 186 189 197 203 213 219 225 226 223 237 253 258 263 266 266 268 270 271 271 269 268 268 267 268 269 269 269 268 267 267 267 265 265 264
170 168 165 167 171 174 175 179 186 189 198 204 211 219 225 229 235 243 251 257 260 261 264 267 268 269 269 268 270 271 272 270 269 270 270 268 268 268 267 266 267 265
169 168 167 172 174 174 172 175 181 192 199 204 212 219 221 218 235 241 246 251 256 260 261 264 265 266 267 269 273 273 270 271 270 270 270 271 272 271 269 269 265 265
170 167 167 172 169 167 169 173 180 191 199 205 211 212 211 217 224 233 242 247 251 254 258 260 262 266 269 272 272 271 270 270 271 274 273 271 269 269 269 268 270 271
167 166 166 167 165 163 167 178 184 193 200 206 205 206 208 214 222 232 236 241 246 256 260 262 265 268 270 270 268 269 271 272 271 270 269 271 268 269 270 269 267 267
165 165 163 164 165 164 173 180 187 195 199 204 207 204 214 215 222 229 239 243 247 253 258 263 266 266 264 266 271 269 272 272 274 274 272 270 271 269 268 266 267 268
164 163 162 161 162 168 173 180 185 193 199 202 200 209 205 214 219 228 235 240 246 251 255 259 262 265 266 268 269 271 271 273 274 274 274 272 274 272 269 270 270 270
162 161 161 160 163 167 174 178 185 189 193 193 203 205 204 215 221 227 235 239 244 249 252 255 257 258 259 261 264 267 268 269 271 274 273 275 274 273 273 271 272 272
159 161 159 161 164 168 176 180 182 186 187 193 199 199 204 210 218 224 230 235 244 248 249 251 253 255 256 256 261 264 268 267 267 270 271 271 271 272 274 277 276 276
161 159 159 162 167 172 176 179 179 182 185 191 194 197 201 206 212 222 229 237 243 246 247 249 251 256 257 258 259 262 265 267 267 265 267 268 269 272 275 276 276 277
161 160 162 165 167 171 175 176 178 178 182 189 190 197 202 205 215 219 230 237 241 243 246 249 253 255 260 261 260 259 262 265 267 267 266 267 268 269 273 277 275 273
161 161 163 165 166 168 171 174 174 179 181 185 189 196 200 208 214 222 226 238 242 246 248 252 253 255 256 259 262 263 264 265 267 266 267 269 270 273 274 273 278 272
161 161 160 162 164 166 165 170 174 177 180 179 182 190 199 209 215 220 231 236 243 245 246 251 254 255 257 260 262 263 265 265 267 270 270 273 280 284 282 277 271 271
157 154 155 158 159 158 162 167 168 170 173 171 174 187 199 212 215 223 232 238 242 245 249 251 256 256 259 260 263 265 268 268 273 279 283 280 276 275 275 273 270 266
147 149 149 147 151 153 158 162 162 162 163 167 174 186 199 205 215 226 235 241 241 242 245 250 252 256 255 258 261 268 273 277 277 274 276 280 278 278 278 275 270 268
144 140 142 144 147 154 158 158 159 157 160 169 176 189 195 202 213 227 233 238 241 242 246 249 254 254 255 258 267 271 275 276 280 282 282 278 279 279 276 274 275 276
138 142 142 148 151 149 151 152 153 154 157 166 175 188 195 203 217 227 229 232 234 241 251 254 256 257 261 267 274 279 285 286 285 282 278 280 281 280 282 286 284 281
141 140 142 145 144 148 146 147 145 149 157 167 178 188 197 204 220 224 229 231 233 241 251 259 261 263 268 275 281 286 289 289 288 288 288 286 282 284 286 288 286 287
139 139 137 140 144 142 140 143 145 153 163 174 186 188 195 210 218 224 226 228 232 241 256 263 266 269 272 281 288 291 294 294 290 287 286 282 285 287 287 284 283 282
135 133 136 138 138 138 142 145 152 164 170 177 178 188 202 215 219 222 227 228 232 247 261 266 269 272 278 286 293 298 299 298 291 287 285 285 285 284 286 289 290 291
132 135 135 139 139 142 145 151 157 164 173 179 181 192 202 210 215 218 225 221 235 248 256 267 268 273 282 292 298 301 302 304 298 295 289 285 283 278 275 269 268 272
137 138 135 139 142 145 148 155 162 168 171 178 182 194 202 212 223 222 224 224 231 243 255 265 270 277 287 293 299 304 307 308 301 293 289 287 283 281 281 280 284 287
146 139 137 141 143 144 149 156 160 167 170 175 179 196 202 210 213 226 226 224 233 243 256 267 273 281 288 296 302 307 311 307 301 295 293 286 286 290 287 285 283 279
133 130 132 134 138 142 147 150 153 162 169 181 180 194 200 201 217 230 230 229 236 247 259 269 275 285 293 298 304 308 312 308 304 301 290 295 293 282 287 284 276 275
111 111 116 124 127 133 139 146 156 168 171 176 191 196 199 206 218 231 231 242 245 255 266 271 271 275 287 300 308 311 313 308 305 302 301 293 291 292 286 279 277 281
123 123 123 127 132 129 132 136 147 164 176 186 199 198 200 209 213 230 239 255 259 249 249 260 276 286 291 303 310 313 315 313 305 305 298 297 297 291 294 303 304 302